FW2316 Weather Reports


Display with metric or nautical units.
time (UTC)temp
F
wind
direction
speed
MPH
gust
MPH
rain 1hr
in
rain 24hr
in
rain mn
in
humidity
%
barometer
mb
20260503230116 83 311 6.0 11.0 0.00 0.00 0.00 44 1011.2
20260503225559 84 272 5.0 9.0 0.00 0.00 0.00 43 1011.2
20260503225058 84 293 5.0 9.0 0.00 0.00 0.00 44 1011.2
20260503224604 82 295 5.0 10.0 0.00 0.00 0.00 47 1011.3
20260503224057 82 234 5.0 11.0 0.00 0.00 0.00 46 1011.4
20260503223556 83 237 4.0 10.0 0.00 0.00 0.00 45 1011.5
20260503223055 82 292 4.0 10.0 0.00 0.00 0.00 44 1011.5
20260503222655 81 227 4.0 8.0 0.00 0.00 0.00 48 1011.7
20260503222052 82 241 3.0 10.0 0.00 0.00 0.00 46 1011.6
20260503221553 82 263 4.0 10.0 0.00 0.00 0.00 46 1011.8
20260503221054 81 258 4.0 10.0 0.00 0.00 0.00 48 1011.9
20260503220551 82 282 4.0 11.0 0.00 0.00 0.00 47 1012.0
20260503220051 83 283 5.0 11.0 0.00 0.00 0.00 47 1012.0
20260503215549 82 276 3.0 8.0 0.00 0.00 0.00 48 1012.1
20260503215048 80 249 4.0 9.0 0.00 0.00 0.00 52 1012.3
20260503214549 81 221 3.0 10.0 0.00 0.00 0.00 50 1012.2
20260503214046 81 292 4.0 11.0 0.00 0.00 0.00 48 1012.3
20260503213546 81 268 6.0 11.0 0.00 0.00 0.00 48 1012.4
20260503213045 81 286 4.0 11.0 0.00 0.00 0.00 50 1012.4
20260503212646 81 288 0.0 5.0 0.00 0.00 0.00 50 1012.5
20260503212045 80 236 0.0 5.0 0.00 0.00 0.00 50 1012.5
20260503211603 80 232 1.0 5.0 0.00 0.00 0.00 49 1012.6
20260503211042 80 221 0.0 3.0 0.00 0.00 0.00 49 1012.6
20260503210642 80 252 0.0 3.0 0.00 0.00 0.00 49 1012.6
20260503210040 80 206 0.0 6.0 0.00 0.00 0.00 49 1012.7
20260503205540 80 213 0.0 4.0 0.00 0.00 0.00 49 1012.7
20260503205039 79 211 1.0 6.0 0.00 0.00 0.00 49 1012.7
20260503204539 79 265 1.0 6.0 0.00 0.00 0.00 50 1012.7
20260503204039 79 217 0.0 3.0 0.00 0.00 0.00 51 1012.8
20260503203537 79 336 0.0 4.0 0.00 0.00 0.00 51 1013.0
20260503203044 79 207 1.0 4.0 0.00 0.00 0.00 51 1012.9
20260503202035 79 302 2.0 10.0 0.00 0.00 0.00 53 1012.9
20260503201534 78 302 2.0 9.0 0.00 0.00 0.00 54 1013.1
20260503201036 78 288 5.0 9.0 0.00 0.00 0.00 56 1013.1
20260503200532 78 297 5.0 9.0 0.00 0.00 0.00 55 1013.1
20260503200046 77 268 2.0 7.0 0.00 0.00 0.00 58 1013.2
20260503195531 77 284 2.0 8.0 0.00 0.00 0.00 55 1013.3
20260503195030 78 290 4.0 8.0 0.00 0.00 0.00 55 1013.4
20260503194530 76 273 4.0 9.0 0.00 0.00 0.00 58 1013.4
20260503194028 78 277 3.0 9.0 0.00 0.00 0.00 56 1013.4
20260503193527 78 289 4.0 9.0 0.00 0.00 0.00 55 1013.6
20260503193032 76 288 1.0 6.0 0.00 0.00 0.00 57 1013.7
20260503192627 76 222 0.0 3.0 0.00 0.00 0.00 58 1013.8
20260503192026 75 260 0.0 3.0 0.00 0.00 0.00 57 1013.8
20260503191524 75 312 1.0 3.0 0.00 0.00 0.00 57 1013.9
20260503191024 75 304 0.0 2.0 0.00 0.00 0.00 56 1013.9
20260503190524 76 351 0.0 2.0 0.00 0.00 0.00 55 1013.9
20260503190022 76 24 0.0 3.0 0.00 0.00 0.00 56 1013.9
20260503185521 75 346 0.0 3.0 0.00 0.00 0.00 54 1013.9
20260503185026 75 190 0.0 4.0 0.00 0.00 0.00 52 1014.0
20260503184519 74 222 0.0 4.0 0.00 0.00 0.00 54 1014.0
20260503184018 74 214 1.0 4.0 0.00 0.00 0.00 56 1014.2
20260503183518 74 336 0.0 3.0 0.00 0.00 0.00 56 1014.2
20260503183017 74 355 0.0 2.0 0.00 0.00 0.00 58 1014.2
20260503182616 73 12 0.0 2.0 0.00 0.00 0.00 58 1014.3
20260503182019 73 344 0.0 2.0 0.00 0.00 0.00 58 1014.3
20260503181515 73 23 0.0 2.0 0.00 0.00 0.00 57 1014.3
20260503181014 73 355 0.0 1.0 0.00 0.00 0.00 59 1014.4
20260503180513 73 215 0.0 2.0 0.00 0.00 0.00 60 1014.4
20260503180012 72 345 0.0 2.0 0.00 0.00 0.00 61 1014.6
20260503175511 72 24 0.0 2.0 0.00 0.00 0.00 59 1014.5
20260503175011 72 319 0.0 3.0 0.00 0.00 0.00 61 1014.6
20260503174515 72 215 0.0 3.0 0.00 0.00 0.00 60 1014.6
20260503174009 72 221 0.0 3.0 0.00 0.00 0.00 61 1014.6
20260503173509 72 39 0.0 2.0 0.00 0.00 0.00 60 1014.6
20260503173008 71 321 0.0 1.0 0.00 0.00 0.00 62 1014.6
20260503172607 71 225 0.0 2.0 0.00 0.00 0.00 61 1014.7
20260503172007 71 257 0.0 2.0 0.00 0.00 0.00 61 1014.8
20260503171508 71 227 0.0 2.0 0.00 0.00 0.00 62 1014.8
20260503171008 71 245 0.0 3.0 0.00 0.00 0.00 62 1014.7
20260503170508 70 217 1.0 3.0 0.00 0.00 0.00 62 1014.8
20260503150547 67 74 0.0 1.0 0.00 0.00 0.00 55 1015.1
20260503131026 53 259 0.0 2.0 0.00 0.00 0.00 82 1015.0
20260503130527 53 259 0.0 1.0 0.00 0.00 0.00 83 1015.0
20260503110516 55 86 0.0 0.0 0.00 0.00 0.00 81 1015.2
20260503090502 59 279 1.0 4.0 0.00 0.00 0.00 82 1015.4
20260503081512 56 177 0.0 1.0 0.00 0.00 0.00 88 1015.8
20260503081003 56 176 0.0 1.0 0.00 0.00 0.00 89 1015.8
20260503080503 56 176 0.0 1.0 0.00 0.00 0.00 89 1015.7
20260503072505 58 284 0.0 0.0 0.00 0.00 0.00 88 1015.6
20260503071603 58 284 0.0 0.0 0.00 0.00 0.00 88 1015.7
20260503071102 58 284 0.0 0.0 0.00 0.00 0.00 88 1015.5
20260503070600 58 284 0.0 0.0 0.00 0.00 0.00 88 1015.5
20260503070105 58 284 0.0 0.0 0.00 0.00 0.00 87 1015.5
20260503060103 60 286 0.0 3.0 0.00 0.00 0.00 86 1015.2
20260503055102 60 287 1.0 4.0 0.00 0.00 0.00 85 1015.2
20260503054604 60 288 1.0 2.0 0.00 0.00 0.00 84 1015.1
20260503054058 60 288 0.0 2.0 0.00 0.00 0.00 84 1015.3
20260503053558 60 288 0.0 0.0 0.00 0.00 0.00 84 1015.2
20260503053058 60 288 0.0 0.0 0.00 0.00 0.00 83 1015.4
20260503052558 61 288 0.0 1.0 0.00 0.00 0.00 82 1015.3
20260503052001 61 288 0.0 1.0 0.00 0.00 0.00 82 1015.3
20260503051501 61 288 0.0 1.0 0.00 0.00 0.00 82 1015.3
20260503051100 61 288 0.0 0.0 0.00 0.00 0.00 82 1015.3
20260503050600 61 288 0.0 2.0 0.00 0.00 0.00 81 1015.3
20260503050100 62 288 0.0 2.0 0.00 0.00 0.00 80 1015.3
20260503045600 62 288 0.0 2.0 0.00 0.00 0.00 79 1015.2
20260503045100 63 288 0.0 2.0 0.00 0.00 0.00 77 1015.1
20260503044610 63 288 0.0 2.0 0.00 0.00 0.00 75 1015.1
20260503044100 64 288 0.0 1.0 0.00 0.00 0.00 74 1015.0
20260503043559 64 288 0.0 1.0 0.00 0.00 0.00 73 1015.0
20260503043100 65 288 0.0 0.0 0.00 0.00 0.00 71 1015.0
20260503042600 64 214 0.0 0.0 0.00 0.00 0.00 71 1014.9
20260503041601 64 215 0.0 1.0 0.00 0.00 0.00 70 1014.8
20260503041059 64 214 0.0 0.0 0.00 0.00 0.00 70 1014.8
20260503040559 65 214 0.0 0.0 0.00 0.00 0.00 68 1014.6
20260503040104 65 214 0.0 0.0 0.00 0.00 0.00 68 1014.7
20260503035558 66 215 0.0 0.0 0.00 0.00 0.00 69 1014.6
20260503035101 66 215 0.0 0.0 0.00 0.00 0.00 68 1014.6
20260503034604 66 214 0.0 0.0 0.00 0.00 0.00 68 1014.5
20260503034058 66 215 0.0 0.0 0.00 0.00 0.00 69 1014.4
20260503033601 67 214 0.0 0.0 0.00 0.00 0.00 68 1014.3
20260503033059 67 215 0.0 0.0 0.00 0.00 0.00 67 1014.2
20260503032558 69 288 0.0 1.0 0.00 0.00 0.00 67 1014.2
20260503031557 69 288 0.0 1.0 0.00 0.00 0.00 66 1014.1
20260503031057 69 288 0.0 1.0 0.00 0.00 0.00 65 1014.0
20260503030556 70 288 0.0 1.0 0.00 0.00 0.00 64 1014.0
20260503030126 70 288 0.0 1.0 0.00 0.00 0.00 62 1014.0
20260503025556 71 288 0.0 2.0 0.00 0.00 0.00 61 1014.0
20260503025100 71 288 0.0 3.0 0.00 0.00 0.00 60 1013.9
20260503024604 71 288 0.0 3.0 0.00 0.00 0.00 61 1013.9
20260503024056 72 288 2.0 4.0 0.00 0.00 0.00 60 1013.9
20260503023557 72 288 1.0 4.0 0.00 0.00 0.00 59 1014.0
20260503023056 73 288 1.0 5.0 0.00 0.00 0.00 59 1013.7
20260503022556 73 288 2.0 5.0 0.00 0.00 0.00 58 1013.8
20260503021605 74 289 3.0 7.0 0.00 0.00 0.00 57 1013.8
20260503021053 74 290 4.0 7.0 0.00 0.00 0.00 57 1013.7
20260503020553 74 289 2.0 7.0 0.00 0.00 0.00 57 1013.8
20260503020053 74 287 2.0 7.0 0.00 0.00 0.00 57 1013.7
20260503015552 74 287 3.0 8.0 0.00 0.00 0.00 57 1013.7
20260503015052 74 292 4.0 8.0 0.00 0.00 0.00 56 1013.7
20260503014603 75 285 4.0 8.0 0.00 0.00 0.00 56 1013.7
20260503014051 75 292 2.0 9.0 0.00 0.00 0.00 56 1013.7
20260503013551 75 288 3.0 9.0 0.00 0.00 0.00 56 1013.6
20260503013053 76 275 5.0 9.0 0.00 0.00 0.00 56 1013.7
20260503012550 75 268 2.0 6.0 0.00 0.00 0.00 57 1013.8
20260503011558 75 275 3.0 7.0 0.00 0.00 0.00 57 1013.7
20260503011049 76 288 3.0 8.0 0.00 0.00 0.00 56 1013.6
20260503010549 75 285 6.0 8.0 0.00 0.00 0.00 57 1013.7
20260503010103 75 285 3.0 9.0 0.00 0.00 0.00 57 1013.7
20260503005550 76 304 5.0 9.0 0.00 0.00 0.00 57 1013.9
20260503005046 76 286 2.0 7.0 0.00 0.00 0.00 58 1013.7
20260503004550 75 298 4.0 8.0 0.00 0.00 0.00 58 1013.7
20260503004047 76 312 3.0 8.0 0.00 0.00 0.00 59 1013.9
20260503003545 76 252 4.0 8.0 0.00 0.00 0.00 58 1013.9
20260503003055 76 273 4.0 11.0 0.00 0.00 0.00 57 1013.9
20260503002544 76 279 4.0 9.0 0.00 0.00 0.00 59 1013.9
20260503001543 75 278 3.0 9.0 0.00 0.00 0.00 59 1013.9
20260503001144 76 282 6.0 9.0 0.00 0.00 0.00 58 1013.9
20260503000540 75 275 5.0 10.0 0.00 0.00 0.00 61 1013.9
20260503000040 75 244 3.0 10.0 0.00 0.00 0.00 59 1014.0
20260502235543 76 257 5.0 10.0 0.00 0.00 0.00 58 1013.9
20260502235040 76 288 5.0 10.0 0.00 0.00 0.00 57 1014.0
20260502234541 76 265 3.0 8.0 0.00 0.00 0.00 58 1014.0
20260502234041 76 305 5.0 10.0 0.00 0.00 0.00 57 1014.2
20260502233538 76 273 3.0 12.0 0.00 0.00 0.00 58 1014.3
20260502233036 76 287 7.0 12.0 0.00 0.00 0.00 58 1014.3
20260502232535 74 210 0.0 4.0 0.00 0.00 0.00 60 1014.4
20260502231537 74 196 1.0 4.0 0.00 0.00 0.00 60 1014.5
20260502231034 73 213 1.0 3.0 0.00 0.00 0.00 62 1014.6
20260502230534 72 215 0.0 3.0 0.00 0.00 0.00 63 1014.7